Temperature
14 14 14 14 14 14 14 14 14 14 14 15 14 14 14 14 14 14 14 13 13 13 13 13 13 13 13 13 13 13 14 14 14 14 14 14 14 14
14 14 14 14 14 14 14 14 14 14 14 14 14 14 14 14 14 14 13 13 13 13 13 13 13 13 13 13 13 13 13 13 14 14 14 14 14 14
14 14 14 14 14 14 14 14 14 14 14 14 14 14 14 14 14 14 13 13 13 13 13 13 13 13 13 13 13 13 13 13 13 13 13 13 14 14
14 14 14 14 14 14 13 13 13 13 13 14 14 14 14 14 14 14 14 14 13 13 13 13 13 13 13 13 13 13 13 13 13 13 13 13 13 13
14 14 14 14 14 14 13 13 13 13 13 13 14 14 14 14 14 14 14 14 14 14 14 13 13 13 13 13 13 13 13 13 13 13 13 13 13 13
14 14 14 14 14 14 14 13 13 13 13 13 14 14 14 14 14 14 14 14 14 14 14 14 14 14 13 13 13 13 13 13 13 13 13 13 13 13
14 14 14 14 14 14 14 14 13 13 13 13 14 14 14 14 14 14 14 14 14 14 14 14 14 14 14 13 13 13 13 13 13 13 13 13 12 12
14 14 14 14 14 14 14 14 13 13 13 13 13 13 14 14 13 13 13 13 13 14 14 14 14 14 14 13 13 13 13 13 13 13 13 13 12 12
14 14 14 14 14 14 14 13 13 13 13 13 13 13 13 13 13 13 13 13 13 13 13 13 14 13 14 13 13 13 13 13 13 13 13 13 13 12
14 14 14 14 14 13 13 13 13 13 13 13 13 13 13 13 12 12 12 12 12 13 12 12 13 13 13 13 13 13 13 13 13 13 13 13 13 12
13 13 13 13 13 13 13 13 13 13 13 12 12 12 12 12 12 12 12 12 12 12 12 12 12 12 12 13 13 13 13 13 12 12 12 12 12 12
13 13 13 13 13 12 12 12 12 13 12 12 12 12 12 12 11 11 11 11 11 11 12 11 11 11 11 12 12 12 12 12 12 12 12 12 12 12
12 12 12 12 12 12 11 11 12 11 11 11 11 11 11 11 11 11 11 10 10 10 11 10 10 10 10 10 11 11 11 12 12 12 12 12 12 12
12 12 12 11 11 11 11 11 11 11 11 10 11 11 11 11 11 11 10 10 10 10 10 10 10 10 9 9 9 10 11 11 11 11 11 11 11 11
11 11 11 11 11 10 10 10 10 10 10 10 10 10 10 10 10 10 10 10 10 10 10 10 9 9 9 9 9 9 10 10 11 11 11 11 11 11
11 10 10 10 10 10 10 10 9 9 9 9 9 9 9 9 9 9 9 9 9 9 10 9 9 9 9 9 8 9 9 9 10 10 10 10 10 11
10 10 10 9 9 9 9 9 9 9 8 8 8 8 8 8 8 8 8 8 8 8 9 9 9 9 8 8 8 8 8 9 9 10 10 10 10 10
9 9 9 9 9 8 8 8 8 8 8 8 8 8 7 7 7 7 7 7 7 7 7 8 8 8 8 8 8 8 8 8 9 9 9 9 9 10
8 8 8 8 7 7 7 7 7 7 7 7 7 7 6 6 6 6 6 6 6 6 7 7 7 7 6 6 7 8 8 8 8 8 8 8 8 9
7 7 7 6 6 6 6 6 6 6 6 6 6 6 6 6 5 5 5 5 5 6 6 6 6 6 6 6 6 7 7 7 7 7 8 8 8 8
6 6 6 6 5 5 5 5 5 5 5 5 5 5 5 5 5 5 5 5 5 5 5 5 5 5 5 5 6 6 7 7 7 7 7 7 7 8
5 5 5 5 5 4 4 4 4 4 5 4 4 4 4 4 4 4 4 4 4 4 4 5 5 5 5 5 5 5 6 6 7 7 7 7 7 7
4 4 4 4 4 4 4 4 4 4 4 4 4 4 4 4 4 4 3 4 4 4 4 4 4 4 5 5 5 5 5 6 6 6 7 7 7 7
Wind_Speed
3 3 2 2 2 2 2 3 4 2 2 2 2 2 3 4 5 5 5 7 8 8 9 9 9 9 9 9 9 9 9 8 9 10 10 11 11 12
3 3 3 2 2 2 3 2 3 3 3 3 3 2 3 4 5 6 7 9 10 11 11 12 12 12 12 12 11 11 11 11 11 11 11 11 11 11
4 5 5 3 3 3 3 3 3 3 3 3 2 2 2 3 3 5 6 8 9 11 12 12 13 13 13 13 13 13 13 13 13 13 12 12 12 12
7 6 6 4 5 4 3 4 4 4 4 4 2 2 3 3 3 4 5 7 8 11 13 13 14 14 14 14 14 14 14 15 15 15 15 15 14 14
8 8 7 6 6 5 5 5 4 4 4 4 4 3 3 3 3 3 4 5 7 9 11 12 13 14 14 14 14 14 15 15 16 17 17 17 17 16
8 8 8 8 8 7 6 6 5 5 4 4 5 4 4 3 3 4 5 4 5 6 8 10 12 13 13 14 14 15 15 16 16 17 18 19 19 19
8 8 8 9 10 8 7 7 6 5 5 5 5 4 5 4 4 3 5 6 6 5 5 6 7 8 10 12 15 16 17 17 18 18 19 19 20 20
8 8 7 8 9 10 10 9 9 7 7 6 6 7 7 6 5 5 5 5 5 3 3 5 4 7 10 11 15 18 19 19 19 19 20 20 20 21
8 7 7 7 8 7 8 9 10 11 10 8 9 9 8 7 5 7 7 7 8 5 4 8 7 9 11 14 18 21 21 22 22 21 21 21 21 21
8 8 8 7 6 7 6 7 7 8 9 9 9 10 9 8 7 7 8 8 8 7 6 8 8 9 10 12 18 21 23 23 23 23 23 22 22 22
7 7 7 7 7 8 7 7 7 7 8 11 12 13 13 13 9 5 6 6 8 8 6 6 8 9 9 10 14 18 20 22 23 23 23 23 23 21
4 5 7 8 7 7 7 7 8 7 5 6 7 9 10 11 11 9 8 8 8 7 5 6 7 6 7 6 7 9 11 15 19 21 22 23 21 15
4 4 3 5 6 7 7 6 8 6 5 6 6 7 6 6 7 8 9 9 10 10 6 5 7 7 8 8 8 9 10 11 12 14 18 21 21 16
3 3 2 4 5 5 5 5 6 5 4 4 5 6 6 7 7 7 9 11 13 13 12 9 8 10 11 13 12 9 9 10 11 11 12 15 17 20
1 1 1 1 2 3 4 5 4 3 3 4 5 6 6 7 7 6 8 9 12 15 16 14 12 12 12 13 13 13 12 11 11 12 12 11 11 10
1 1 1 1 0 1 2 2 2 3 3 5 5 6 5 5 6 6 7 7 7 9 11 15 14 13 13 14 14 14 13 10 10 11 11 11 11 12
1 1 2 2 3 2 2 2 2 2 3 3 4 5 5 6 6 6 6 7 8 9 11 9 9 11 14 13 13 14 14 14 13 12 11 12 12 12
3 2 2 2 2 3 3 3 3 3 3 4 4 5 6 7 7 7 7 8 9 10 11 10 9 8 9 10 14 15 14 14 13 12 12 13 14 13
3 2 1 2 3 3 3 4 4 5 4 4 5 5 6 7 7 8 8 8 9 10 11 10 9 9 12 15 11 13 13 13 12 12 12 13 15 14
2 2 2 2 3 3 4 4 5 5 5 5 6 6 6 6 7 8 8 9 10 10 11 9 9 9 11 14 13 11 13 14 12 13 13 12 13 13
3 3 3 3 4 4 4 5 5 6 6 6 6 7 7 7 8 9 9 11 11 10 11 11 10 11 11 10 11 12 12 13 15 13 12 12 12 12
4 4 4 5 5 5 5 5 5 6 7 6 7 7 7 7 9 10 10 10 10 11 12 11 11 9 9 10 13 15 15 12 12 17 19 15 11 11
4 5 5 5 5 5 5 6 7 7 7 7 7 8 8 8 8 9 10 11 11 12 12 12 10 9 10 11 12 13 16 15 11 11 12 14 19 21
Wind_Direction
178 174 171 179 180 181 168 162 159 194 247 270 278 291 281 269 269 264 264 270 273 273 274 275 275 275 274 274 274 275 276 275 270 265 263 262 262 259
185 180 186 189 180 177 176 174 173 178 220 245 250 274 285 279 273 261 264 273 276 275 274 273 272 272 270 269 268 268 268 269 269 268 265 263 262 262
193 195 205 193 190 186 178 177 184 178 212 252 250 263 260 266 282 272 268 268 273 274 274 272 272 270 269 267 265 264 264 264 263 263 263 263 263 262
203 201 212 204 205 201 194 199 201 199 206 239 253 249 247 255 266 273 273 269 268 273 272 270 270 268 267 266 264 263 261 260 259 259 258 259 260 260
207 206 213 205 215 214 211 213 214 210 210 229 253 250 257 258 265 269 269 272 272 270 269 266 265 263 262 262 263 263 261 259 257 255 254 254 255 256
215 214 215 210 216 217 218 220 217 216 215 231 252 261 262 259 251 265 279 269 274 277 270 267 263 261 258 257 260 262 261 259 257 255 254 252 252 252
222 224 223 219 219 216 219 219 213 219 225 236 252 263 265 258 256 254 270 286 281 261 269 267 262 262 261 259 259 260 259 258 258 256 254 252 251 250
225 228 230 230 230 226 226 221 210 216 226 233 248 255 263 259 258 256 266 279 285 249 243 270 257 265 265 261 260 259 259 258 257 256 254 252 251 250
222 226 232 232 222 230 234 235 231 227 222 228 246 254 261 258 256 264 254 252 259 261 257 279 269 267 267 264 261 260 259 258 256 256 254 253 251 249
223 222 229 238 230 224 233 240 244 243 238 235 242 252 257 260 253 260 266 267 266 259 236 265 273 271 273 269 264 261 259 258 256 255 254 253 251 249
233 232 231 239 239 224 228 242 254 258 252 242 245 254 260 263 257 258 258 261 273 270 226 244 270 275 275 271 267 261 258 257 256 255 255 252 250 248
237 237 233 235 242 229 229 237 252 264 271 272 264 266 265 266 252 239 244 254 266 274 238 229 265 272 279 264 261 265 264 260 257 256 255 253 249 244
236 239 240 233 238 237 231 236 248 263 272 269 274 277 275 268 261 248 239 240 252 259 252 232 262 264 264 277 275 269 266 268 267 263 257 252 246 232
241 248 246 222 226 229 226 239 253 259 258 265 272 276 277 275 272 266 257 251 250 257 263 250 258 264 270 275 277 275 268 263 261 263 264 258 249 237
241 245 293 273 259 248 247 253 258 249 251 259 265 271 274 278 282 282 278 268 264 263 264 257 255 262 263 267 272 274 278 274 262 258 259 255 252 244
327 354 8 10 337 299 308 298 276 259 254 262 272 277 284 285 284 285 286 288 285 283 270 260 255 255 260 262 264 268 268 268 265 260 257 258 254 247
59 46 37 19 6 357 345 331 321 305 282 278 281 290 295 296 296 297 289 289 281 285 288 283 268 258 255 260 264 264 265 265 264 264 261 262 259 252
81 47 18 1 343 329 323 323 319 312 306 303 298 297 297 297 298 299 292 287 284 283 284 287 289 286 278 264 240 257 262 264 265 261 258 261 264 259
67 35 351 334 329 326 324 318 313 314 312 306 302 298 296 296 294 294 294 292 288 287 286 287 283 278 281 283 267 229 252 265 266 264 260 257 261 264
29 2 336 326 322 319 317 315 311 310 307 302 299 297 297 297 296 295 293 292 292 292 291 287 280 274 272 279 283 278 247 256 264 265 266 262 262 264
344 329 320 319 319 317 315 310 307 309 309 308 303 300 298 296 295 295 295 293 290 289 288 288 288 284 281 280 278 276 273 249 249 260 267 267 266 265
335 328 324 322 319 317 315 313 309 307 308 305 302 300 297 295 295 295 295 295 293 290 291 292 295 293 284 278 278 283 287 283 264 252 250 249 257 261
334 327 321 320 319 317 313 310 308 305 305 303 301 300 299 297 296 295 295 293 293 294 296 297 296 290 282 280 282 283 285 288 285 280 270 250 244 252
Height
1561 1562 1563 1564 1564 1565 1566 1567 1568 1567 1568 1568 1569 1569 1570 1570 1570 1570 1570 1570 1570 1569 1569 1568 1568 1568 1567 1567 1567 1568 1568 1568 1568 1569 1569 1570 1570 1571
1559 1560 1561 1562 1562 1563 1563 1564 1565 1565 1565 1566 1566 1567 1567 1568 1568 1568 1568 1567 1567 1567 1566 1566 1565 1565 1564 1564 1564 1564 1564 1564 1564 1564 1565 1565 1565 1566
1556 1557 1558 1559 1560 1560 1561 1561 1562 1562 1562 1563 1563 1564 1564 1565 1565 1565 1564 1564 1564 1563 1563 1563 1562 1562 1561 1561 1561 1560 1560 1560 1560 1560 1560 1560 1560 1561
1553 1554 1555 1556 1557 1558 1558 1558 1559 1559 1560 1559 1560 1560 1561 1561 1561 1561 1561 1560 1560 1560 1559 1559 1558 1558 1557 1557 1557 1556 1556 1556 1556 1555 1555 1555 1556 1556
1550 1551 1552 1553 1554 1554 1555 1555 1556 1556 1556 1556 1556 1557 1557 1557 1557 1557 1556 1556 1556 1555 1555 1555 1554 1554 1553 1553 1552 1552 1551 1551 1551 1551 1550 1550 1550 1550
1547 1548 1548 1549 1550 1551 1551 1552 1552 1552 1553 1552 1552 1552 1553 1552 1552 1552 1551 1551 1551 1551 1550 1550 1549 1549 1548 1548 1547 1547 1546 1546 1545 1545 1545 1545 1544 1544
1543 1544 1544 1545 1546 1547 1547 1548 1548 1548 1548 1548 1548 1548 1548 1548 1548 1547 1546 1545 1545 1545 1544 1544 1544 1543 1543 1542 1541 1541 1540 1540 1539 1539 1538 1538 1538 1538
1538 1539 1540 1541 1541 1542 1542 1543 1543 1544 1543 1544 1543 1543 1543 1543 1543 1542 1541 1540 1538 1539 1538 1537 1537 1536 1536 1536 1535 1534 1533 1532 1532 1532 1531 1531 1531 1531
1533 1534 1535 1535 1536 1537 1537 1538 1538 1538 1539 1539 1538 1537 1537 1537 1537 1536 1535 1533 1532 1532 1531 1529 1530 1528 1528 1527 1527 1526 1525 1525 1524 1524 1524 1523 1523 1523
1527 1528 1529 1529 1530 1531 1531 1532 1532 1533 1533 1533 1532 1532 1532 1532 1531 1530 1528 1526 1525 1525 1525 1521 1521 1520 1520 1519 1518 1518 1517 1516 1516 1515 1515 1515 1515 1515
1520 1521 1522 1523 1523 1524 1525 1525 1525 1526 1526 1526 1526 1525 1525 1525 1524 1523 1521 1520 1517 1517 1517 1514 1512 1511 1510 1509 1509 1509 1508 1507 1507 1506 1506 1506 1506 1507
1514 1515 1515 1516 1517 1518 1518 1518 1518 1518 1519 1519 1519 1518 1517 1517 1517 1516 1514 1513 1510 1508 1508 1507 1504 1503 1499 1498 1499 1500 1499 1498 1498 1497 1497 1497 1498 1497
1509 1509 1509 1510 1510 1511 1511 1511 1511 1511 1511 1511 1510 1510 1510 1509 1509 1508 1507 1505 1503 1500 1501 1500 1497 1495 1493 1489 1489 1489 1489 1489 1488 1488 1488 1488 1488 1488
1503 1504 1504 1504 1504 1504 1504 1504 1504 1505 1504 1503 1503 1502 1502 1501 1500 1500 1499 1497 1495 1493 1493 1491 1488 1487 1485 1481 1479 1478 1479 1479 1479 1478 1478 1478 1478 1478
1500 1499 1499 1499 1499 1499 1499 1499 1499 1498 1498 1497 1496 1495 1495 1493 1492 1490 1489 1488 1486 1485 1484 1482 1480 1478 1476 1473 1470 1469 1468 1468 1468 1467 1467 1467 1467 1467
1496 1496 1496 1495 1495 1494 1494 1494 1493 1492 1491 1490 1489 1488 1487 1486 1484 1483 1481 1479 1476 1475 1475 1474 1472 1469 1466 1464 1462 1459 1459 1457 1457 1457 1457 1456 1456 1456
1493 1493 1492 1491 1491 1490 1489 1489 1488 1487 1486 1484 1483 1481 1480 1479 1477 1476 1474 1472 1469 1466 1465 1465 1463 1460 1457 1455 1452 1450 1449 1448 1448 1447 1446 1444 1444 1445
1491 1490 1489 1488 1487 1486 1485 1484 1483 1482 1480 1479 1477 1476 1474 1472 1470 1468 1467 1464 1461 1459 1457 1455 1453 1450 1447 1444 1443 1441 1439 1438 1438 1437 1436 1434 1432 1434
1488 1487 1486 1485 1484 1482 1481 1480 1478 1477 1475 1473 1471 1470 1468 1466 1464 1461 1460 1457 1454 1451 1449 1447 1445 1443 1439 1434 1432 1433 1431 1429 1428 1427 1425 1424 1422 1422
1485 1484 1482 1481 1480 1478 1477 1475 1474 1472 1470 1468 1466 1464 1462 1460 1458 1455 1453 1451 1447 1444 1441 1439 1438 1435 1432 1428 1423 1421 1422 1421 1419 1417 1416 1414 1413 1412
1482 1481 1479 1478 1476 1475 1473 1471 1469 1467 1465 1463 1461 1459 1457 1454 1451 1449 1447 1444 1441 1437 1434 1432 1430 1427 1424 1420 1416 1411 1412 1412 1410 1408 1407 1405 1404 1402
1479 1478 1476 1474 1472 1470 1468 1466 1464 1462 1460 1458 1455 1453 1451 1448 1445 1443 1440 1437 1434 1431 1427 1424 1422 1419 1417 1413 1408 1405 1402 1401 1401 1399 1398 1397 1395 1393
1476 1474 1472 1470 1468 1466 1464 1462 1459 1457 1455 1452 1450 1447 1445 1442 1439 1437 1434 1431 1427 1424 1421 1417 1415 1412 1409 1406 1402 1398 1395 1393 1391 1390 1388 1387 1386 1385